Innosat16

operational
NORAD ID: 64878 Int'l Des: 2025-155C Owner: GEOSK Country: RU
LEOCIRCULARRETROGRADESSO

About Innosat16

Description loading...

Live Position

Loading 3D Globe...

Upcoming Passes

Altitude History

Altitude vs Time

uPlot chart will show altitude changes over time

Two-Line Element Set

1 64878U 25155C 26062.15124262 .00008186 00000-0 33985-3 0 9994
2 64878 97.4451 29.7940 0010152 188.2111 171.8962 15.24053286 64513
Epoch: Mar 3, 2026 • Age: 30 hours

Current Status

Altitude 503.7 km
Velocity 7.61 km/s
Sub-Earth Point -0.22°S, 132.65°E
Launch Date Jul 25, 2025
Age 0.6 years
Type other

Technical Details

Classification Payload
Mass 20.00 kg
Dry Mass 20.00 kg
Total Mass 20.00 kg
Length 0.40 m
Diameter 0.20 m
Span 0.40 m
Shape Box
Manufacturer SPUT/GEOSK
Bus Type Cubesat 16U
Phase Status In Orbit
Owner/State GEOSK/RU

Large Constellations

Loading constellations...